星链-35712(STARLINK-35712)

导读 | 豆包AI

STARLINK-35712是美国SpaceX公司星链星座的一颗低轨通信卫星,于2025年10月28日发射入轨。它运行在近地轨道,是星链全球卫星互联网星座的组成部分,旨在为全球偏远、缺乏地面基础设施的区域提供高速、低延迟的宽带互联网服务,同时也可支持商业航运、航空移动通信等场景,进一步扩展星链星座的服务覆盖与网络能力。

基本信息
目录编号:
66215
目录名称:
STARLINK-35712
国际标识:
2025-244K
轨道中心:
EARTH
卫星名称:
星链-35712
卫星全名:
星链-35712(STARLINK-35712)
卫星状态:
在轨 (已飞行209 天)
发射日期:
2025-10-28 UTC
国别 :
美国 (US)
星等 :
--
轨道信息
数据来源 国际轨道数据 AOE轨道数据
星历时间 2026-05-25T07:38:34+0800
11小时前
查看轨道信息
2026-05-24T05:00:00+0800
1天前
查看轨道信息
半长轴 6853.327km 6853.42km
偏心率 0.0001438 0.0001346
轨道倾角 53.158° 53.158°
近地点辐角 97.056° 80.084°
升交点赤经 235.312° 240.472°
平近点角 263.061° 281.327°
近地点 474.204km 474.36km
远地点 476.176km 476.206km
周期 94.105分钟 94.107分钟
每日圈数 15.302086 15.301775
详细信息
固有亮度:
5
最大亮度:
2.5
卫星平台:
Starlink V1.0
覆盖范围:
全球
运营商:
太空探索技术公司
运营商所在国:
美国
制造商(研发单位):
太空探索技术公司
制造商所在国:
美国
使用方式:
暂无
卫星简介
Starlink 计划是 SpaceX 推出的全球卫星互联网项目,通过发射低轨道卫星,为全球尤其是偏远地区提供高速、低延迟的互联网服务。自 2019 年起,Starlink 已部署数千颗卫星,旨在缩小全球数字鸿沟,推动互联网普及。该项目还为军事、航空等行业提供通信支持,带来广泛经济效益。
2D轨道图
3D轨道图
轨道高度分析图
轨道倾角分析图
轨道综合分析图
查看轨道综合分析图